Weather History for Corinth, MS

Change the Weather History Date:

Friday, October 12, 2012

  Actual Average Record
Temperature  
Mean Temperature 67 °F -  
Max Temperature 77 °F 76 °F 93 °F (1931)
Min Temperature 57 °F 48 °F 28 °F (1987)
Cooling Degree Days 2    
Growing Degree Days 17 (Base 50)    
Moisture  
Dew Point 61 °F    
Average Humidity 84    
Maximum Humidity 94    
Minimum Humidity 65    
Precipitation  
Precipitation 0.00 in - - ()
Sea Level Pressure  
Sea Level Pressure 30.23 in    
Wind  
Wind Speed 2 mph (ENE)    
Max Wind Speed 8 mph    
Max Gust Speed -    
Visibility 9 miles    
Events Thunderstorm    
Averages and records for this station are not official NWS values.
T = Trace of Precipitation, MM = Missing Value Source: NWS Daily Summary

Daily Weather History Graph

Daily Weather History Graph

Search for Another Location

Airport:

Trip Planner

Search our weather history database for the weather conditions in past years. The results will help you decide how hot, cold, wet, or windy it might be!

Date:

Astronomy

Oct. 12, 2012 Rise Set
Actual Time 6:58 AM CDT 6:22 PM CDT
Civil Twilight 6:32 AM CDT 6:48 PM CDT
Nautical Twilight 6:03 AM CDT 7:17 PM CDT
Astronomical Twilight 5:34 AM CDT 7:46 PM CDT
Moon 3:47 AM CDT (10/12) 4:27 PM CDT (10/12)
Length of Visible Light 12h 15m
Length of Day
11h 24m
Waning Crescent, 10% of the Moon is Illuminated
Oct 12
Waning Crescent
Oct 15
New
Oct 21
First Quarter
Oct 29
Full
Nov 6
Last Quarter

Hourly Weather History & Observations

Time (CDT) Temp. Dew Point Humidity Pressure Visibility Wind Dir Wind Speed Gust Speed Precip Events Conditions
12:05 AM 59.0 °F 55.4 °F 88% 30.22 in 10.0 mi Calm Calm - N/A   Overcast
12:25 AM 59.0 °F 55.4 °F 88% 30.21 in 10.0 mi South 4.6 mph - N/A   Overcast
12:45 AM 57.2 °F 55.4 °F 94% 30.21 in 10.0 mi SSE 3.5 mph - N/A   Mostly Cloudy
1:05 AM 57.2 °F 55.4 °F 94% 30.20 in 10.0 mi SSE 3.5 mph - N/A   Overcast
1:25 AM 57.2 °F 55.4 °F 94% 30.21 in 10.0 mi Calm Calm - N/A   Overcast
1:45 AM 57.2 °F 55.4 °F 94% 30.21 in 10.0 mi Calm Calm - N/A   Overcast
2:45 AM 59.0 °F 57.2 °F 94% 30.20 in 10.0 mi SSE 3.5 mph - N/A   Overcast
3:05 AM 59.0 °F 57.2 °F 94% 30.19 in 10.0 mi Calm Calm - N/A   Overcast
3:25 AM 59.0 °F 57.2 °F 94% 30.19 in 10.0 mi Calm Calm - N/A   Overcast
3:45 AM 59.0 °F 57.2 °F 94% 30.18 in 10.0 mi South 3.5 mph - N/A   Overcast
4:05 AM 59.0 °F 57.2 °F 94% 30.18 in 10.0 mi Calm Calm - N/A   Overcast
4:25 AM 59.0 °F 57.2 °F 94% 30.18 in 10.0 mi Calm Calm - N/A   Overcast
4:45 AM 59.0 °F 57.2 °F 94% 30.18 in 10.0 mi Calm Calm - N/A   Mostly Cloudy
5:05 AM 60.8 °F 57.2 °F 88% 30.19 in 10.0 mi Calm Calm - N/A   Mostly Cloudy
5:25 AM 60.8 °F 57.2 °F 88% 30.20 in 10.0 mi Calm Calm - N/A   Overcast
5:45 AM 62.6 °F 59.0 °F 88% 30.20 in 10.0 mi Calm Calm - N/A   Overcast
6:05 AM 62.6 °F 59.0 °F 88% 30.21 in 10.0 mi Calm Calm - N/A   Overcast
6:25 AM 62.6 °F 59.0 °F 88% 30.21 in 10.0 mi South 5.8 mph - N/A   Mostly Cloudy
6:45 AM 62.6 °F 59.0 °F 88% 30.21 in 10.0 mi Calm Calm - N/A   Overcast
7:05 AM 62.6 °F 59.0 °F 88% 30.22 in 8.0 mi Calm Calm - N/A   Mostly Cloudy
7:25 AM 60.8 °F 59.0 °F 94% 30.23 in 7.0 mi SSE 3.5 mph - N/A   Mostly Cloudy
7:45 AM 62.6 °F 59.0 °F 88% 30.23 in 6.0 mi ESE 3.5 mph - N/A   Mostly Cloudy
8:05 AM 64.4 °F 60.8 °F 88% 30.24 in 8.0 mi South 3.5 mph - N/A   Overcast
8:25 AM 64.4 °F 60.8 °F 88% 30.24 in 9.0 mi South 3.5 mph - N/A   Overcast
8:45 AM 66.2 °F 62.6 °F 88% 30.25 in 10.0 mi NE 3.5 mph - N/A   Overcast
9:05 AM 68.0 °F 62.6 °F 83% 30.27 in 10.0 mi NNE 4.6 mph - N/A Thunderstorm Mostly Cloudy
9:45 AM 68.0 °F 60.8 °F 78% 30.28 in 10.0 mi NNW 4.6 mph - N/A   Overcast
10:05 AM 69.8 °F 62.6 °F 78% 30.30 in 10.0 mi NNW 4.6 mph - N/A Thunderstorm Mostly Cloudy
10:25 AM 68.0 °F 62.6 °F 83% 30.30 in 10.0 mi NNW 6.9 mph - N/A Thunderstorm Overcast
11:05 AM 69.8 °F 62.6 °F 78% 30.30 in 10.0 mi North 5.8 mph - N/A   Overcast
11:25 AM 69.8 °F 62.6 °F 78% 30.30 in 10.0 mi Calm Calm - N/A   Overcast
11:45 AM 71.6 °F 62.6 °F 73% 30.30 in 10.0 mi Calm Calm - N/A   Overcast
12:05 PM 71.6 °F 62.6 °F 73% 30.29 in 10.0 mi Calm Calm - N/A   Scattered Clouds
12:25 PM 73.4 °F 62.6 °F 69% 30.28 in 10.0 mi WSW 3.5 mph - N/A   Scattered Clouds
12:45 PM 73.4 °F 62.6 °F 69% 30.27 in 10.0 mi Calm Calm - N/A   Overcast
1:25 PM 73.4 °F 62.6 °F 69% 30.26 in 10.0 mi Calm Calm - N/A   Overcast
2:25 PM 77.0 °F 64.4 °F 65% 30.23 in 10.0 mi SSW 4.6 mph - N/A   Scattered Clouds
3:05 PM 77.0 °F 64.4 °F 65% 30.22 in 10.0 mi SW 8.1 mph - N/A   Clear
3:45 PM 77.0 °F 64.4 °F 65% 30.22 in 10.0 mi SSE 3.5 mph - N/A   Mostly Cloudy
4:05 PM 77.0 °F 64.4 °F 65% 30.22 in 10.0 mi Calm Calm - N/A   Overcast
4:25 PM 77.0 °F 64.4 °F 65% 30.22 in 10.0 mi Calm Calm - N/A   Overcast
4:45 PM 77.0 °F 64.4 °F 65% 30.22 in 10.0 mi Calm Calm - N/A   Overcast
5:05 PM 75.2 °F 64.4 °F 69% 30.21 in 10.0 mi NE 4.6 mph - N/A   Mostly Cloudy
5:25 PM 75.2 °F 66.2 °F 73% 30.21 in 10.0 mi NE 3.5 mph - N/A   Mostly Cloudy
6:05 PM 73.4 °F 64.4 °F 73% 30.21 in 10.0 mi NE 6.9 mph - N/A   Overcast
6:45 PM 69.8 °F 64.4 °F 83% 30.22 in 10.0 mi NE 3.5 mph - N/A   Mostly Cloudy
7:05 PM 68.0 °F 64.4 °F 88% 30.22 in 10.0 mi NE 4.6 mph - N/A   Scattered Clouds
7:25 PM 68.0 °F 64.4 °F 88% 30.22 in 10.0 mi NE 5.8 mph - N/A   Clear
8:05 PM 66.2 °F 64.4 °F 94% 30.23 in 9.0 mi NE 3.5 mph - N/A   Clear
8:25 PM 66.2 °F 62.6 °F 88% 30.23 in 7.0 mi NE 3.5 mph - N/A   Mostly Cloudy
8:45 PM 66.2 °F 62.6 °F 88% 30.23 in 6.0 mi Calm Calm - N/A   Mostly Cloudy
9:05 PM 66.2 °F 62.6 °F 88% 30.24 in 5.0 mi North 4.6 mph - N/A   Mostly Cloudy
9:25 PM 64.4 °F 62.6 °F 94% 30.24 in 5.0 mi NNE 4.6 mph - N/A   Overcast
9:45 PM 66.2 °F 64.4 °F 94% 30.24 in 3.0 mi ENE 4.6 mph - N/A   Overcast
10:05 PM 66.2 °F 64.4 °F 94% 30.24 in 3.0 mi East 3.5 mph - N/A   Overcast
10:25 PM 66.2 °F 64.4 °F 94% 30.24 in 3.0 mi NE 3.5 mph - N/A   Overcast
11:25 PM 66.2 °F 64.4 °F 94% 30.23 in 3.0 mi Calm Calm - N/A   Overcast
11:45 PM 66.2 °F 64.4 °F 94% 30.23 in 3.0 mi Calm Calm - N/A   Overcast